| time (UTC) | temp C | wind direction | speed KPH | gust KPH | rain 1hr cm | rain 24hr cm | rain mn cm | humidity % | barometer mb |
| 20260507130004 | 5 | 209 | 1.6 | 4.8 | 0.00 | 0.33 | 0.00 | 92 | 1019.2 |
| 20260507125004 | 5 | 101 | 0.0 | 3.2 | 0.00 | 0.33 | 0.00 | 96 | 1019.2 |
| 20260507124003 | 5 | 101 | 1.6 | 3.2 | 0.00 | 0.33 | 0.00 | 97 | 1019.2 |
| 20260507123004 | 4 | 101 | 0.0 | 3.2 | 0.00 | 0.33 | 0.00 | 97 | 1019.3 |
| 20260507122005 | 4 | 101 | 0.0 | 0.0 | 0.00 | 0.36 | 0.00 | 97 | 1019.2 |
| 20260507121004 | 4 | 101 | 0.0 | 0.0 | 0.00 | 0.36 | 0.00 | 97 | 1019.1 |
| 20260507120001 | 3 | 101 | 0.0 | 3.2 | 0.00 | 0.36 | 0.00 | 98 | 1019.3 |
| 20260507115001 | 3 | 101 | 0.0 | 3.2 | 0.00 | 0.36 | 0.00 | 98 | 1019.2 |
| 20260507113001 | 3 | 357 | 0.0 | 0.0 | 0.00 | 0.38 | 0.00 | 98 | 1019.2 |
| 20260507112001 | 3 | 357 | 0.0 | 3.2 | 0.00 | 0.41 | 0.00 | 98 | 1019.1 |
| 20260507111002 | 3 | 357 | 0.0 | 3.2 | 0.00 | 0.43 | 0.00 | 98 | 1019.1 |
| 20260507104003 | 3 | 0 | 1.6 | 4.8 | 0.00 | 0.46 | 0.00 | 98 | 1018.5 |
| 20260507103002 | 3 | 47 | 0.0 | 1.6 | 0.00 | 0.48 | 0.00 | 98 | 1018.2 |
| 20260507102001 | 3 | 15 | 0.0 | 0.0 | 0.00 | 0.48 | 0.00 | 98 | 1018.4 |
| 20260507101001 | 3 | 15 | 0.0 | 0.0 | 0.00 | 0.51 | 0.00 | 98 | 1018.4 |
| 20260507100002 | 3 | 15 | 0.0 | 0.0 | 0.00 | 0.53 | 0.00 | 98 | 1018.4 |
| 20260507095001 | 3 | 15 | 0.0 | 0.0 | 0.00 | 0.53 | 0.00 | 98 | 1018.6 |
| 20260507094002 | 4 | 15 | 0.0 | 0.0 | 0.00 | 0.53 | 0.00 | 98 | 1018.5 |
| 20260507093001 | 4 | 15 | 0.0 | 0.0 | 0.00 | 0.56 | 0.00 | 98 | 1018.4 |
| 20260507091002 | 4 | 15 | 0.0 | 1.6 | 0.00 | 0.61 | 0.00 | 99 | 1018.5 |
| 20260507090002 | 4 | 15 | 0.0 | 0.0 | 0.00 | 0.64 | 0.00 | 98 | 1018.2 |
| 20260507085001 | 4 | 15 | 0.0 | 0.0 | 0.00 | 0.64 | 0.00 | 98 | 1018.3 |
| 20260507083001 | 3 | 15 | 0.0 | 0.0 | 0.00 | 0.69 | 0.00 | 98 | 1018.5 |
| 20260507082001 | 3 | 15 | 0.0 | 0.0 | 0.00 | 0.69 | 0.00 | 98 | 1018.6 |
| 20260507075001 | 3 | 15 | 0.0 | 0.0 | 0.00 | 0.76 | 0.00 | 98 | 1018.3 |
| 20260507073002 | 3 | 15 | 0.0 | 0.0 | 0.00 | 0.84 | 0.00 | 97 | 1018.3 |
| 20260507071001 | 3 | 15 | 0.0 | 0.0 | 0.00 | 0.91 | 0.00 | 97 | 1018.3 |
| 20260507070003 | 4 | 15 | 0.0 | 3.2 | 0.00 | 0.94 | 0.00 | 97 | 1018.2 |
| 20260507064002 | 5 | 15 | 0.0 | 1.6 | 0.00 | 0.99 | 0.00 | 98 | 1018.4 |
| 20260507063002 | 5 | 15 | 1.6 | 3.2 | 0.00 | 0.99 | 0.00 | 98 | 1018.6 |
| 20260507062002 | 5 | 357 | 1.6 | 3.2 | 0.00 | 1.02 | 0.00 | 97 | 1018.8 |
| 20260507061001 | 5 | 339 | 0.0 | 0.0 | 0.00 | 1.02 | 0.00 | 98 | 1018.7 |
| 20260507060002 | 5 | 339 | 0.0 | 0.0 | 0.00 | 1.04 | 0.00 | 98 | 1018.6 |
| 20260507055002 | 5 | 339 | 0.0 | 0.0 | 0.00 | 1.04 | 0.00 | 98 | 1018.6 |
| 20260507053003 | 5 | 339 | 0.0 | 0.0 | 0.00 | 1.09 | 0.00 | 98 | 1018.6 |
| 20260507052003 | 5 | 339 | 0.0 | 0.0 | 0.00 | 1.09 | 0.00 | 98 | 1018.9 |
| 20260507051002 | 5 | 339 | 0.0 | 1.6 | 0.00 | 1.12 | 0.00 | 98 | 1018.9 |
| 20260507050005 | 5 | 339 | 0.0 | 0.0 | 0.00 | 1.14 | 0.00 | 98 | 1018.8 |
| 20260507045003 | 5 | 339 | 0.0 | 0.0 | 0.00 | 1.17 | 0.00 | 98 | 1019.1 |
| 20260507044004 | 5 | 339 | 0.0 | 0.0 | 0.00 | 1.19 | 0.00 | 98 | 1019.1 |
| 20260507043002 | 5 | 339 | 0.0 | 0.0 | 0.00 | 1.19 | 0.00 | 97 | 1019.1 |
| 20260507042003 | 5 | 339 | 0.0 | 0.0 | 0.00 | 1.19 | 0.00 | 97 | 1018.9 |
| 20260507041003 | 5 | 339 | 0.0 | 0.0 | 0.00 | 1.19 | 0.00 | 97 | 1019.1 |
| 20260507040003 | 5 | 339 | 0.0 | 0.0 | 0.00 | 1.19 | 0.00 | 97 | 1018.9 |
| 20260507035002 | 5 | 339 | 0.0 | 0.0 | 0.00 | 1.19 | 1.19 | 97 | 1019.0 |
| 20260507034002 | 5 | 339 | 0.0 | 0.0 | 0.00 | 1.22 | 1.19 | 97 | 1019.0 |
| 20260507033002 | 5 | 339 | 0.0 | 0.0 | 0.00 | 1.22 | 1.19 | 97 | 1018.9 |
| 20260507032002 | 5 | 339 | 0.0 | 0.0 | 0.00 | 1.24 | 1.19 | 97 | 1019.0 |
| 20260507031002 | 5 | 339 | 0.0 | 0.0 | 0.00 | 1.27 | 1.19 | 97 | 1018.9 |
| 20260507030002 | 5 | 339 | 0.0 | 0.0 | 0.00 | 1.30 | 1.19 | 97 | 1018.9 |
| 20260507025002 | 6 | 339 | 0.0 | 0.0 | 0.00 | 1.32 | 1.19 | 97 | 1019.0 |
| 20260507024003 | 6 | 339 | 0.0 | 0.0 | 0.00 | 1.35 | 1.19 | 97 | 1018.8 |
| 20260507023004 | 6 | 339 | 0.0 | 3.2 | 0.00 | 1.37 | 1.19 | 97 | 1018.8 |
| 20260507022002 | 6 | 325 | 0.0 | 1.6 | 0.00 | 1.40 | 1.19 | 97 | 1019.0 |
| 20260507020003 | 6 | 324 | 0.0 | 0.0 | 0.00 | 1.45 | 1.19 | 97 | 1019.1 |
| 20260507015003 | 6 | 324 | 0.0 | 0.0 | 0.00 | 1.45 | 1.19 | 97 | 1019.0 |
| 20260507014003 | 6 | 324 | 0.0 | 0.0 | 0.00 | 1.47 | 1.19 | 97 | 1019.0 |
| 20260507013002 | 6 | 324 | 0.0 | 0.0 | 0.00 | 1.50 | 1.19 | 97 | 1018.8 |
| 20260507012002 | 6 | 324 | 0.0 | 0.0 | 0.00 | 1.52 | 1.19 | 97 | 1018.7 |
| 20260507010002 | 6 | 324 | 0.0 | 0.0 | 0.00 | 1.55 | 1.19 | 97 | 1018.4 |
| 20260507005002 | 6 | 324 | 0.0 | 1.6 | 0.00 | 1.57 | 1.19 | 97 | 1018.3 |
| 20260507003002 | 6 | 324 | 0.0 | 0.0 | 0.00 | 1.68 | 1.19 | 96 | 1018.2 |
| 20260507002002 | 6 | 324 | 0.0 | 1.6 | 0.00 | 1.73 | 1.19 | 96 | 1018.2 |
| 20260507001003 | 6 | 324 | 0.0 | 0.0 | 0.00 | 1.75 | 1.19 | 96 | 1018.1 |
| 20260507000002 | 6 | 324 | 0.0 | 0.0 | 0.00 | 1.78 | 1.19 | 96 | 1017.9 |
| 20260506235002 | 6 | 324 | 0.0 | 0.0 | 0.00 | 1.80 | 1.19 | 96 | 1017.9 |
| 20260506234002 | 6 | 324 | 0.0 | 1.6 | 0.00 | 1.83 | 1.19 | 96 | 1017.9 |
| 20260506233003 | 6 | 343 | 0.0 | 3.2 | 0.00 | 1.85 | 1.19 | 97 | 1017.8 |
| 20260506231003 | 6 | 347 | 0.0 | 4.8 | 0.00 | 1.91 | 1.19 | 97 | 1017.7 |
| 20260506225003 | 6 | 25 | 1.6 | 4.8 | 0.03 | 1.96 | 1.19 | 96 | 1017.4 |
| 20260506224003 | 6 | 23 | 1.6 | 8.0 | 0.03 | 1.98 | 1.19 | 96 | 1017.3 |
| 20260506223003 | 6 | 347 | 0.0 | 4.8 | 0.05 | 2.03 | 1.19 | 96 | 1017.3 |
| 20260506222002 | 6 | 297 | 0.0 | 3.2 | 0.05 | 2.11 | 1.19 | 96 | 1017.2 |
| 20260506215004 | 6 | 358 | 3.2 | 4.8 | 0.13 | 2.31 | 1.17 | 94 | 1016.8 |
| 20260506213002 | 7 | 353 | 4.8 | 11.3 | 0.23 | 2.41 | 1.14 | 94 | 1016.2 |
| 20260506212004 | 7 | 4 | 4.8 | 12.9 | 0.23 | 2.46 | 1.14 | 93 | 1015.9 |
| 20260506211002 | 8 | 346 | 1.6 | 4.8 | 0.20 | 2.46 | 1.12 | 92 | 1015.7 |
| 20260506205003 | 10 | 342 | 1.6 | 8.0 | 0.13 | 2.39 | 1.04 | 92 | 1015.5 |
| 20260506204002 | 10 | 53 | 0.0 | 4.8 | 0.05 | 2.31 | 0.97 | 91 | 1015.4 |
| 20260506203003 | 10 | 117 | 0.0 | 0.0 | 0.00 | 2.26 | 0.91 | 88 | 1015.2 |
| 20260506201003 | 10 | 135 | 1.6 | 4.8 | 0.00 | 2.26 | 0.91 | 85 | 1015.1 |
| 20260506200004 | 10 | 156 | 4.8 | 4.8 | 0.00 | 2.26 | 0.91 | 85 | 1015.1 |
| 20260506195003 | 10 | 244 | 1.6 | 3.2 | 0.00 | 2.26 | 0.91 | 84 | 1015.2 |
| 20260506194003 | 10 | 168 | 3.2 | 4.8 | 0.00 | 2.26 | 0.91 | 85 | 1015.3 |
| 20260506193003 | 10 | 89 | 3.2 | 4.8 | 0.00 | 2.26 | 0.91 | 86 | 1015.3 |
| 20260506191003 | 10 | 359 | 1.6 | 4.8 | 0.00 | 2.26 | 0.91 | 85 | 1015.2 |
| 20260506190003 | 11 | 134 | 4.8 | 9.7 | 0.00 | 2.26 | 0.91 | 85 | 1015.1 |
| 20260506185003 | 10 | 102 | 1.6 | 8.0 | 0.00 | 2.26 | 0.91 | 86 | 1015.2 |
| 20260506184002 | 10 | 194 | 1.6 | 12.9 | 0.00 | 2.26 | 0.91 | 87 | 1015.2 |
| 20260506183003 | 10 | 137 | 6.4 | 11.3 | 0.00 | 2.26 | 0.91 | 88 | 1015.4 |
| 20260506182003 | 10 | 152 | 3.2 | 9.7 | 0.00 | 2.26 | 0.91 | 91 | 1015.4 |
| 20260506181003 | 9 | 134 | 1.6 | 4.8 | 0.00 | 2.26 | 0.91 | 91 | 1015.4 |
| 20260506180004 | 9 | 92 | 3.2 | 11.3 | 0.00 | 2.26 | 0.91 | 91 | 1015.4 |
| 20260506175004 | 9 | 91 | 1.6 | 3.2 | 0.00 | 2.26 | 0.91 | 91 | 1015.5 |
| 20260506174003 | 8 | 175 | 0.0 | 3.2 | 0.00 | 2.26 | 0.91 | 90 | 1015.6 |
| 20260506173004 | 9 | 129 | 3.2 | 4.8 | 0.00 | 2.26 | 0.91 | 90 | 1015.6 |
| 20260506172004 | 9 | 150 | 1.6 | 4.8 | 0.00 | 2.26 | 0.91 | 90 | 1015.5 |
| 20260506170003 | 8 | 167 | 1.6 | 4.8 | 0.00 | 2.26 | 0.91 | 91 | 1015.4 |
| 20260506165003 | 8 | 51 | 3.2 | 4.8 | 0.00 | 2.26 | 0.91 | 93 | 1015.3 |
| 20260506164004 | 8 | 108 | 1.6 | 4.8 | 0.00 | 2.26 | 0.91 | 94 | 1015.4 |
| 20260506163004 | 8 | 94 | 3.2 | 4.8 | 0.00 | 2.26 | 0.91 | 93 | 1015.4 |
| 20260506162003 | 8 | 64 | 1.6 | 4.8 | 0.00 | 2.26 | 0.91 | 95 | 1015.5 |
| 20260506161003 | 8 | 81 | 3.2 | 4.8 | 0.00 | 2.26 | 0.91 | 95 | 1015.5 |
| 20260506160003 | 8 | 71 | 3.2 | 9.7 | 0.00 | 2.26 | 0.91 | 95 | 1015.4 |
| 20260506155004 | 8 | 68 | 1.6 | 4.8 | 0.00 | 2.26 | 0.91 | 95 | 1015.2 |
| 20260506154003 | 8 | 69 | 0.0 | 4.8 | 0.00 | 2.26 | 0.91 | 96 | 1015.3 |
| 20260506152004 | 8 | 126 | 4.8 | 12.9 | 0.03 | 2.26 | 0.91 | 97 | 1015.0 |
| 20260506151003 | 7 | 96 | 3.2 | 9.7 | 0.03 | 2.26 | 0.91 | 97 | 1015.2 |
| 20260506145003 | 7 | 84 | 4.8 | 9.7 | 0.03 | 2.26 | 0.91 | 97 | 1015.0 |
| 20260506144003 | 7 | 65 | 3.2 | 11.3 | 0.03 | 2.26 | 0.91 | 97 | 1014.9 |
| 20260506143004 | 7 | 98 | 3.2 | 4.8 | 0.00 | 2.24 | 0.89 | 97 | 1015.1 |
| 20260506142003 | 7 | 91 | 3.2 | 4.8 | 0.00 | 2.24 | 0.89 | 97 | 1015.1 |
| 20260506141004 | 7 | 58 | 3.2 | 8.0 | 0.03 | 2.24 | 0.89 | 97 | 1015.0 |
| 20260506135003 | 7 | 97 | 1.6 | 8.0 | 0.03 | 2.24 | 0.89 | 98 | 1015.0 |
| 20260506134004 | 7 | 57 | 1.6 | 9.7 | 0.03 | 2.24 | 0.89 | 98 | 1014.8 |
| 20260506132003 | 7 | 79 | 3.2 | 4.8 | 0.05 | 2.24 | 0.89 | 98 | 1014.6 |
| 20260506131004 | 7 | 98 | 4.8 | 8.0 | 0.03 | 2.21 | 0.86 | 98 | 1014.6 |